Weather History for Kremmling, CO

Change the Weather History Date:

Thursday, February 21, 2013

  Actual Average (KEGE) Record (KEGE)
Temperature  
Mean Temperature 19 °F -  
Max Temperature 30 °F 41 °F 62 °F (1977)
Min Temperature 8 °F 11 °F -31 °F (1955)
Degree Days  
Heating Degree Days 46    
Moisture  
Dew Point 14 °F    
Average Humidity 73    
Maximum Humidity 93    
Minimum Humidity 51    
Precipitation  
Precipitation 0.01 in - - ()
Sea Level Pressure  
Sea Level Pressure 29.70 in    
Wind  
Wind Speed 2 mph (NNW)    
Max Wind Speed 14 mph    
Max Gust Speed 16 mph    
Averages and records for this station are not official NWS values.
T = Trace of Precipitation, MM = Missing Value Source: NWS Daily Summary

Daily Weather History Graph

Daily Weather History Graph

Search for Another Location

Airport:

Trip Planner

Search our weather history database for the weather conditions in past years. The results will help you decide how hot, cold, wet, or windy it might be!

Date:

Astronomy

Feb. 21, 2013 Rise Set
Actual Time 6:49 AM MST 5:48 PM MST
Civil Twilight 6:22 AM MST 6:16 PM MST
Nautical Twilight 5:51 AM MST 6:47 PM MST
Astronomical Twilight 5:19 AM MST 7:19 PM MST
Moon 2:06 PM MST (2/21) 3:56 AM MST (2/21)
Length of Visible Light 11h 53m
Length of Day
10h 58m
Waxing Gibbous, 84% of the Moon is Illuminated
Feb 21
Waxing Gibbous
Feb 25
Full
Mar 4
Last Quarter
Mar 11
New
Mar 19
First Quarter

Hourly Weather History & Observations

Time (MST) Temp. Windchill Dew Point Humidity Pressure Visibility Wind Dir Wind Speed Gust Speed Precip Events Conditions
12:11 AM 17.6 °F - 14.0 °F 86% 29.56 in - Calm Calm - N/A Snow Light Snow
12:32 AM 17.6 °F - 14.0 °F 86% 29.56 in - Calm Calm - N/A Snow Light Snow
12:51 AM 17.6 °F - 14.0 °F 86% 29.56 in - Calm Calm - N/A Snow Light Snow
1:12 AM 17.6 °F - 14.0 °F 86% 29.56 in - Calm Calm - N/A Snow Light Snow
1:21 AM 17.6 °F - 14.0 °F 86% 29.56 in - Calm Calm - N/A   Unknown
1:38 AM 17.6 °F - 14.0 °F 86% 29.57 in - Calm Calm - N/A Snow Light Snow
2:12 AM 17.6 °F - 14.0 °F 86% 29.56 in - Calm Calm - N/A Snow Light Snow
2:32 AM 17.6 °F - 14.0 °F 86% 29.56 in - Calm Calm - N/A Snow Light Snow
2:52 AM 17.6 °F - 14.0 °F 86% 29.56 in - Calm Calm - N/A Snow Light Snow
3:12 AM 17.6 °F - 14.0 °F 86% 29.56 in - Calm Calm - N/A Snow Light Snow
3:28 AM 17.6 °F 12.3 °F 14.0 °F 86% 29.56 in - ESE 3.5 mph - N/A Snow Light Snow
3:52 AM 17.6 °F - 14.0 °F 86% 29.57 in - Calm Calm - N/A Snow Light Snow
4:13 AM 17.6 °F - 14.0 °F 86% 29.57 in - Calm Calm - N/A Snow Light Snow
4:50 AM 17.6 °F 12.3 °F 14.0 °F 86% 29.58 in - SE 3.5 mph - 0.01 in Snow Light Snow
5:09 AM 19.4 °F - 15.8 °F 86% 29.59 in - Calm Calm - N/A Snow Light Snow
5:32 AM 19.4 °F - 15.8 °F 86% 29.59 in - Calm Calm - N/A Snow Light Snow
5:52 AM 19.4 °F - 15.8 °F 86% 29.60 in - Calm Calm - N/A Snow Light Snow
6:11 AM 17.6 °F - 14.0 °F 86% 29.61 in - Calm Calm - N/A Snow Light Snow
6:30 AM 21.2 °F - 17.6 °F 86% 29.61 in - Calm Calm - N/A Snow Light Snow
6:52 AM 23.0 °F 18.4 °F 17.6 °F 80% 29.62 in - NNW 3.5 mph - N/A Snow Light Snow
7:08 AM 23.0 °F 18.4 °F 17.6 °F 80% 29.63 in - West 3.5 mph - N/A Snow Light Snow
7:32 AM 23.0 °F 13.9 °F 17.6 °F 80% 29.63 in - North 8.1 mph - N/A Snow Light Snow
7:45 AM 23.0 °F 18.4 °F 14.0 °F 68% 29.64 in - NNW 3.5 mph - N/A   Overcast
8:08 AM 23.0 °F 18.4 °F 15.8 °F 74% 29.66 in - NNW 3.5 mph - N/A   Overcast
8:28 AM 23.0 °F - 17.6 °F 80% 29.66 in - Calm Calm - N/A Snow Light Snow
8:51 AM 23.0 °F - 17.6 °F 80% 29.67 in - Calm Calm - N/A   Overcast
9:10 AM 24.8 °F 16.9 °F 14.0 °F 64% 29.68 in - NNW 6.9 mph - N/A   Overcast
9:27 AM 24.8 °F 13.4 °F 17.6 °F 74% 29.68 in - NNW 12.7 mph - N/A Snow Light Snow
9:52 AM 24.8 °F 12.9 °F 15.8 °F 69% 29.69 in - NW 13.8 mph - N/A   Overcast
10:13 AM 24.8 °F 14.6 °F 14.0 °F 64% 29.69 in - NW 10.4 mph - N/A   Overcast
10:33 AM 26.6 °F 18.2 °F 15.8 °F 64% 29.70 in - NW 8.1 mph 16.1 mph N/A   Overcast
10:52 AM 26.6 °F 16.8 °F 14.0 °F 59% 29.70 in - NW 10.4 mph - N/A   Overcast
11:12 AM 28.4 °F 19.7 °F 14.0 °F 55% 29.70 in - NW 9.2 mph - N/A   Overcast
11:17 AM 28.4 °F 19.7 °F 12.2 °F 51% 29.70 in - NW 9.2 mph - N/A   Overcast
11:53 AM 30.2 °F 21.9 °F 14.0 °F 51% 29.70 in - NW 9.2 mph 16.1 mph N/A   Overcast
12:12 PM 30.2 °F 22.6 °F 14.0 °F 51% 29.70 in - NNW 8.1 mph - N/A   Overcast
12:33 PM 30.2 °F 21.9 °F 14.0 °F 51% 29.69 in - NNW 9.2 mph - N/A   Overcast
12:53 PM 30.2 °F 24.3 °F 15.8 °F 55% 29.69 in - NNW 5.8 mph - N/A   Overcast
1:13 PM 28.4 °F 23.3 °F 14.0 °F 55% 29.69 in - NW 4.6 mph - N/A Snow Light Snow
1:33 PM 28.4 °F - 17.6 °F 64% 29.69 in - Calm Calm - N/A   Overcast
1:52 PM 28.4 °F - 17.6 °F 64% 29.69 in - Calm Calm - N/A   Overcast
2:12 PM 28.4 °F - 17.6 °F 64% 29.69 in - Calm Calm - N/A   Mostly Cloudy
2:32 PM 30.2 °F - 17.6 °F 60% 29.70 in - Calm Calm - N/A   Mostly Cloudy
2:53 PM 30.2 °F - 15.8 °F 55% 29.70 in - Calm Calm - N/A   Overcast
3:06 PM 30.2 °F 25.4 °F 14.0 °F 51% 29.71 in - NW 4.6 mph - N/A   Overcast
3:29 PM 30.2 °F - 14.0 °F 51% 29.72 in - Calm Calm - N/A   Overcast
3:53 PM 28.4 °F 22.2 °F 12.2 °F 51% 29.72 in - NNW 5.8 mph - N/A   Overcast
4:11 PM 28.4 °F - 12.2 °F 51% 29.73 in - Calm Calm - N/A   Overcast
4:31 PM 28.4 °F 24.6 °F 12.2 °F 51% 29.74 in - North 3.5 mph - N/A   Mostly Cloudy
4:51 PM 26.6 °F 20.0 °F 12.2 °F 55% 29.74 in - North 5.8 mph - N/A   Mostly Cloudy
5:16 PM 26.6 °F 19.1 °F 12.2 °F 55% 29.75 in - North 6.9 mph - N/A   Overcast
5:34 PM 23.0 °F 12.4 °F 10.4 °F 59% 29.76 in - NNW 10.4 mph - N/A   Overcast
5:56 PM 23.0 °F 13.1 °F 10.4 °F 59% 29.77 in - North 9.2 mph - N/A   Overcast
6:15 PM 21.2 °F 11.7 °F 10.4 °F 63% 29.78 in - North 8.1 mph - N/A   Overcast
6:34 PM 21.2 °F 13.6 °F 10.4 °F 63% 29.79 in - NNW 5.8 mph - N/A   Overcast
6:52 PM 21.2 °F 14.9 °F 10.4 °F 63% 29.80 in - NNW 4.6 mph - N/A   Overcast
7:14 PM 21.2 °F 13.6 °F 10.4 °F 63% 29.81 in - NNW 5.8 mph - N/A   Overcast
7:36 PM 19.4 °F 8.6 °F 14.0 °F 80% 29.82 in - North 9.2 mph - N/A   Overcast
7:56 PM 19.4 °F - 14.0 °F 80% 29.83 in - Calm Calm - N/A Snow Light Snow
8:16 PM 19.4 °F - 15.8 °F 86% 29.83 in - Calm Calm - N/A Snow Light Snow
8:34 PM 19.4 °F 12.8 °F 14.0 °F 80% 29.83 in - SE 4.6 mph - N/A   Overcast
8:56 PM 19.4 °F - 14.0 °F 80% 29.84 in - Calm Calm - N/A Snow Light Snow
9:13 PM 17.6 °F - 14.0 °F 86% 29.84 in - Calm Calm - N/A Snow Light Snow
9:36 PM 14.0 °F - 12.2 °F 93% 29.85 in - Calm Calm - N/A   Unknown
9:54 PM 14.0 °F - 10.4 °F 86% 29.85 in - Calm Calm - N/A   Unknown
10:16 PM 10.4 °F - 6.8 °F 85% 29.85 in - Calm Calm - N/A   Unknown
10:33 PM 8.6 °F - 5.0 °F 85% 29.85 in - Calm Calm - N/A   Unknown
10:54 PM 10.4 °F - 6.8 °F 85% 29.86 in - Calm Calm - N/A   Overcast
11:13 PM 10.4 °F - 6.8 °F 85% 29.86 in - Calm Calm - N/A   Unknown
11:36 PM 10.4 °F 4.0 °F 5.0 °F 79% 29.87 in - ENE 3.5 mph - N/A   Unknown
11:53 PM 10.4 °F 4.0 °F 5.0 °F 79% 29.87 in - East 3.5 mph - N/A   Overcast